Location: Mentone
(34.5413°N, 85.5351°W)
Time: 20:24:13
(UTC-05:00)

S-56A Canister/Altair - Visible Passes

Search period start: 03 August 2015 00:00
Search period end: 13 August 2015 00:00
Orbit: 637 x 2498 km, 38.9° (Epoch: 30 July)

Date Brightness Start Highest point End Pass type
(mag) Time Alt. Az. Time Alt. Az. Time Alt. Az.
03 Aug 8.9 02:54:07 53° S 02:54:53 54° SSE 03:01:51 10° ENE visible
03 Aug 8.3 04:51:33 12° W 04:59:34 73° NNW 05:05:16 10° ENE visible
04 Aug 9.2 02:23:14 49° SE 02:23:14 49° SE 02:29:45 10° ENE visible
04 Aug 8.4 04:20:40 21° WSW 04:27:10 78° NNW 04:33:17 10° ENE visible
05 Aug 9.6 01:52:19 39° ESE 01:52:19 39° ESE 01:57:34 10° ENE visible
05 Aug 8.5 03:49:44 31° WSW 03:54:43 84° NNW 04:01:18 10° ENE visible
06 Aug 10.0 01:21:21 29° E 01:21:21 29° E 01:25:20 10° E visible
06 Aug 8.6 03:18:46 46° WSW 03:22:13 90° NW 03:29:16 10° ENE visible
06 Aug 8.6 05:18:57 10° W 05:27:10 60° N 05:32:43 10° ENE visible
07 Aug 10.4 00:50:20 21° E 00:50:20 21° E 00:53:01 10° E visible
07 Aug 8.7 02:47:45 64° WSW 02:49:39 85° SSE 02:57:13 10° ENE visible
07 Aug 8.7 04:45:45 10° W 04:54:46 62° N 05:00:42 10° ENE visible
08 Aug 10.7 00:19:17 15° E 00:19:17 15° E 00:20:37 10° E visible
08 Aug 8.9 02:16:41 79° S 02:17:01 80° SSE 02:25:08 10° ENE visible
08 Aug 8.8 04:14:06 15° W 04:22:18 65° N 04:28:41 10° ENE visible
09 Aug 9.1 01:45:35 68° ESE 01:45:35 68° ESE 01:52:59 10° ENE visible
09 Aug 8.9 03:43:00 23° W 03:49:46 68° N 03:56:39 10° ENE visible
09 Aug11.323:17:01E23:17:01E22:49:17SSWvisible
10 Aug 9.5 01:14:25 52° E 01:14:25 52° E 01:20:48 10° ENE visible
10 Aug 8.9 03:11:50 33° W 03:17:11 71° N 03:24:36 10° ENE visible
10 Aug 8.5 05:13:40 10° WNW 05:22:30 70° N 05:28:18 10° E visible
10 Aug11.522:45:48ENE22:45:48ENE22:20:17SSWvisible
11 Aug 9.9 00:43:12 40° E 00:43:12 40° E 00:48:31 10° ENE visible
11 Aug 9.0 02:40:36 46° W 02:44:30 75° NNW 02:52:30 10° ENE visible
11 Aug 8.7 04:40:29 10° WNW 04:50:04 68° N 04:56:17 10° E visible
11 Aug 11.1 21:49:05 10° S 21:51:35 15° S 21:51:35 15° S visible
12 Aug 10.2 00:11:54 31° E 00:11:54 31° E 00:16:11 10° ENE visible
12 Aug 9.1 02:09:17 60° W 02:11:46 79° NNW 02:20:22 10° ENE visible
12 Aug 8.9 04:07:11 10° WNW 04:17:33 68° N 04:24:14 10° E visible
12 Aug 10.8 21:16:54 10° S 21:23:15 20° SSE 21:23:15 20° SSE visible
12 Aug 10.5 23:18:31 10° SW 23:40:29 24° E 23:43:46 10° ENE visible
